Location: Jaite
(41.2884°N, 81.5737°W)
Time: 00:05:33
(UTC+00:00)

H-2A R/B - Pass Details

Date: 18 January 2020
Orbit: 503 x 540 km, 97.3° (Epoch: 21 February)

Event Time Altitude Azimuth Distance (km) Brightness Sun altitude
Rises 11:31:32 0° 14° (NNE) 2,707 6.3 -14.3°
Reaches altitude 10° 11:33:41 10° 16° (NNE) 1,810 5.5 -13.9°
Maximum altitude 11:37:35 70° 101° (E) 576 3.1 -13.2°
Drops below altitude 10° 11:41:26 10° 186° (S) 1,785 5.6 -12.5°
Sets 11:43:32 0° 188° (S) 2,667 6.4 -12.2°
